Change the Weather History Date:

Friday, October 19, 2012

  Actual Average (KISQ) Record (KISQ)
Temperature  
Mean Temperature 49 °F -  
Max Temperature 54 °F 52 °F 74 °F (1953)
Min Temperature 45 °F 34 °F 23 °F (1989)
Degree Days  
Heating Degree Days 16    
Moisture  
Dew Point 42 °F    
Average Humidity 82    
Maximum Humidity 90    
Minimum Humidity 66    
Precipitation  
Precipitation 0.26 in - - ()
Sea Level Pressure  
Sea Level Pressure 29.60 in    
Wind  
Wind Speed 5 mph (ESE)    
Max Wind Speed 10 mph    
Max Gust Speed -    
Averages and records for this station are not official NWS values.
T = Trace of Precipitation, MM = Missing Value Source: NWS Daily Summary

Daily Weather History Graph

Daily Weather History Graph

Search for Another Location

Airport or City:

Trip Planner

Search our weather history database for the weather conditions in past years. The results will help you decide how hot, cold, wet, or windy it might be!

Date:

Astronomy

Oct. 19, 2012 Rise Set
Actual Time 8:10 AM EDT 6:51 PM EDT
Civil Twilight 7:39 AM EDT 7:22 PM EDT
Nautical Twilight 7:04 AM EDT 7:57 PM EDT
Astronomical Twilight 6:29 AM EDT 8:32 PM EDT
Moon 1:04 PM EDT (10/19) 10:17 PM EDT (10/19)
Length of Visible Light 11h 42m
Length of Day
10h 41m
Waxing Crescent, 23% of the Moon is Illuminated
Oct 19
Waxing Crescent
Oct 21
First Quarter
Oct 29
Full
Nov 6
Last Quarter
Nov 13
New

Hourly Weather History & Observations

Time (EDT) Temp. Windchill Dew Point Humidity Pressure Visibility Wind Dir Wind Speed Gust Speed Precip Events Conditions
12:56 AM 45.0 °F 41.8 °F 41.0 °F 86% 29.54 in - SE 5.8 mph - N/A   Unknown
1:56 AM 46.0 °F 43.1 °F 41.0 °F 83% 29.55 in - ESE 5.8 mph - 0.01 in   Unknown
2:56 AM 45.0 °F 41.8 °F 41.0 °F 86% 29.54 in - SE 5.8 mph - N/A   Unknown
3:56 AM 45.0 °F 39.7 °F 41.0 °F 86% 29.54 in - SE 10.4 mph - N/A   Unknown
4:56 AM 46.0 °F 43.9 °F 42.1 °F 86% 29.55 in - ESE 4.6 mph - 0.01 in   Unknown
5:56 AM 46.0 °F 43.9 °F 41.0 °F 83% 29.56 in - ESE 4.6 mph - 0.01 in   Unknown
6:56 AM 46.0 °F 43.1 °F 41.0 °F 83% 29.57 in - ESE 5.8 mph - N/A   Unknown
7:56 AM 45.0 °F 42.6 °F 41.0 °F 86% 29.59 in - ESE 4.6 mph - 0.07 in   Unknown
8:56 AM 45.0 °F 42.6 °F 42.1 °F 90% 29.61 in - SSE 4.6 mph - 0.02 in   Unknown
9:56 AM 46.0 °F 43.1 °F 42.1 °F 86% 29.61 in - SE 5.8 mph - 0.01 in   Unknown
10:56 AM 46.9 °F - 42.1 °F 83% 29.62 in - East 3.5 mph - N/A   Unknown
11:56 AM 51.1 °F - 44.1 °F 77% 29.62 in - SE 8.1 mph - N/A   Unknown
12:56 PM 53.1 °F - 43.0 °F 69% 29.62 in - SE 8.1 mph - N/A   Unknown
1:56 PM 52.0 °F - 42.1 °F 69% 29.61 in - Calm Calm - N/A   Unknown
2:56 PM 53.1 °F - 43.0 °F 69% 29.60 in - North 3.5 mph - N/A   Unknown
3:56 PM 53.1 °F - 42.1 °F 66% 29.59 in - East 5.8 mph - N/A   Unknown
4:56 PM 50.0 °F - 45.0 °F 83% 29.60 in - Calm Calm - 0.06 in   Unknown
5:56 PM 48.0 °F - 42.1 °F 80% 29.60 in - East 3.5 mph - 0.07 in   Unknown
6:56 PM 48.0 °F - 43.0 °F 83% 29.62 in - East 4.6 mph - N/A   Unknown
7:56 PM 48.0 °F - 43.0 °F 83% 29.63 in - Calm Calm - N/A   Unknown
8:56 PM 46.0 °F - 42.1 °F 86% 29.64 in - Calm Calm - N/A   Unknown
9:56 PM 46.9 °F - 43.0 °F 86% 29.65 in - Calm Calm - N/A   Unknown
10:56 PM 46.9 °F - 43.0 °F 86% 29.64 in - ENE 3.5 mph - N/A   Unknown
11:56 PM 48.0 °F - 43.0 °F 83% 29.63 in - NNE 3.5 mph - N/A   Unknown